Weather History for KDTN - January, 2013

Change the Weather History Date:

Saturday, January 5, 2013

  Actual Average (KSHV) Record (KSHV)
Temperature  
Mean Temperature 39 °F 46 °F  
Max Temperature 45 °F 57 °F 77 °F (1927)
Min Temperature 33 °F 36 °F 15 °F (1887)
Degree Days  
Heating Degree Days 26 19  
Month to date heating degree days 95  
Since 1 July heating degree days 997  
Cooling Degree Days 0 0  
Month to date cooling degree days 0  
Year to date cooling degree days 0  
Moisture  
Dew Point 38 °F    
Average Humidity 91    
Maximum Humidity 100    
Minimum Humidity 82    
Precipitation  
Precipitation 0.04 in 0.14 in 2.17 in (1872)
Month to date precipitation 0.65  
Year to date precipitation 0.65  
Snow  
Snow 0.00 in - - ()
Month to date snowfall  
Since 1 July snowfall  
Snow Depth -    
Sea Level Pressure  
Sea Level Pressure 30.33 in    
Wind  
Wind Speed 2 mph (SSE)    
Max Wind Speed 7 mph    
Max Gust Speed -    
Visibility 7 miles    
Events Fog , Rain    
T = Trace of Precipitation, MM = Missing Value Source: NWS Daily Summary

Daily Weather History Graph

Daily Weather History Graph

Search for Another Location

Airport or City:

Trip Planner

Search our weather history database for the weather conditions in past years. The results will help you decide how hot, cold, wet, or windy it might be!

Date:

Astronomy

Jan. 05, 2013 Rise Set
Actual Time 7:17 AM CST 5:23 PM CST
Civil Twilight 6:50 AM CST 5:50 PM CST
Nautical Twilight 6:20 AM CST 6:21 PM CST
Astronomical Twilight 5:50 AM CST 6:51 PM CST
Moon 12:36 AM CST (1/5) 12:04 PM CST (1/5)
Length of Visible Light 11h 00m
Length of Day
10h 06m
Last Quarter, 44% of the Moon is Illuminated
Jan 5
Last Quarter
Jan 11
New
Jan 18
First Quarter
Jan 26
Full
Feb 3
Last Quarter

Hourly Weather History & Observations

Time (CST) Temp. Windchill Dew Point Humidity Pressure Visibility Wind Dir Wind Speed Gust Speed Precip Events Conditions
12:53 AM 42.1 °F - 39.0 °F 89% 30.35 in 10.0 mi Calm Calm - 0.00 in   Overcast
1:53 AM 43.0 °F - 39.0 °F 86% 30.38 in 10.0 mi Calm Calm - 0.00 in Rain Light Rain
2:53 AM 43.0 °F 39.5 °F 39.0 °F 86% 30.40 in 10.0 mi WSW 5.8 mph - 0.02 in Rain Light Rain
3:53 AM 42.1 °F - 39.9 °F 92% 30.40 in 10.0 mi Calm Calm - 0.01 in Rain Light Rain
4:53 AM 42.1 °F 39.2 °F 39.9 °F 92% 30.40 in 10.0 mi South 4.6 mph - 0.01 in   Overcast
5:53 AM 41.0 °F - 37.9 °F 89% 30.40 in 10.0 mi Calm Calm - 0.00 in   Overcast
6:53 AM 41.0 °F - 39.0 °F 93% 30.39 in 10.0 mi Calm Calm - 0.00 in   Overcast
7:53 AM 41.0 °F - 39.0 °F 93% 30.38 in 9.0 mi Calm Calm - N/A   Overcast
8:53 AM 42.1 °F 38.4 °F 39.9 °F 92% 30.37 in 9.0 mi SE 5.8 mph - N/A   Overcast
9:53 AM 43.0 °F 39.5 °F 39.0 °F 86% 30.38 in 9.0 mi SE 5.8 mph - N/A   Overcast
10:00 AM 42.8 °F 41.1 °F 39.2 °F 87% 30.39 in 10.0 mi SSE 3.5 mph - N/A   Overcast
10:16 AM 42.8 °F 38.6 °F 39.2 °F 87% 30.39 in 9.0 mi South 6.9 mph - N/A   Overcast
10:53 AM 43.0 °F 41.3 °F 39.9 °F 89% 30.40 in 10.0 mi SSE 3.5 mph - N/A   Overcast
11:53 AM 44.1 °F 42.5 °F 39.9 °F 85% 30.38 in 10.0 mi SSE 3.5 mph - N/A   Overcast
12:53 PM 45.0 °F 43.5 °F 39.9 °F 82% 30.32 in 10.0 mi South 3.5 mph - N/A   Overcast
1:08 PM 44.6 °F 40.7 °F 41.0 °F 87% 30.31 in 10.0 mi SSE 6.9 mph - N/A   Overcast
1:53 PM 45.0 °F 41.2 °F 41.0 °F 86% 30.30 in 10.0 mi ESE 6.9 mph - N/A   Overcast
2:14 PM 44.6 °F 40.7 °F 41.0 °F 87% 30.29 in 10.0 mi SE 6.9 mph - N/A   Overcast
2:53 PM 45.0 °F 41.8 °F 41.0 °F 86% 30.28 in 10.0 mi SSE 5.8 mph - N/A   Overcast
3:53 PM 45.0 °F 41.2 °F 39.9 °F 82% 30.29 in 10.0 mi SE 6.9 mph - N/A   Overcast
4:53 PM 45.0 °F 43.5 °F 41.0 °F 86% 30.30 in 10.0 mi South 3.5 mph - N/A   Overcast
5:53 PM 44.1 °F 41.5 °F 39.9 °F 85% 30.30 in 10.0 mi SE 4.6 mph - N/A   Overcast
6:53 PM 42.1 °F 38.4 °F 39.9 °F 92% 30.30 in 10.0 mi SE 5.8 mph - N/A   Mostly Cloudy
7:05 PM 41.0 °F 36.4 °F 39.2 °F 93% 30.30 in 10.0 mi SE 6.9 mph - N/A   Partly Cloudy
7:53 PM 41.0 °F 38.0 °F 39.0 °F 93% 30.30 in 10.0 mi SE 4.6 mph - N/A   Clear
8:53 PM 39.0 °F - 37.9 °F 96% 30.29 in 8.0 mi Calm Calm - N/A   Clear
9:27 PM 35.6 °F - 35.6 °F 100% 30.29 in 1.8 mi Calm Calm - N/A   Clear
9:38 PM 37.4 °F - 35.6 °F 93% 30.30 in 0.8 mi Calm Calm - N/A   Clear
9:53 PM 37.0 °F - 36.0 °F 96% 30.31 in 2.0 mi Calm Calm - N/A   Clear
10:00 PM 35.6 °F - 35.6 °F 100% 30.31 in 7.0 mi Calm Calm - N/A   Clear
10:14 PM 35.6 °F - 33.8 °F 93% 30.31 in 2.0 mi Calm Calm - N/A   Partly Cloudy
10:16 PM 35.6 °F - 33.8 °F 93% 30.31 in 0.8 mi Calm Calm - N/A   Mist
10:26 PM 33.8 °F - 33.8 °F 100% 30.30 in 1.0 mi Calm Calm - N/A   Clear
10:34 PM 33.8 °F - 33.8 °F 100% 30.30 in 0.2 mi Calm Calm - N/A Fog Fog
10:51 PM 35.6 °F - 33.8 °F 93% 30.30 in 2.0 mi Calm Calm - N/A   Partly Cloudy
10:53 PM 35.1 °F - 34.0 °F 96% 30.30 in 4.0 mi Calm Calm - N/A   Partly Cloudy
11:02 PM 35.6 °F - 33.8 °F 93% 30.30 in 1.2 mi Calm Calm - N/A   Partly Cloudy
11:15 PM 35.6 °F - 33.8 °F 93% 30.31 in 2.0 mi Calm Calm - N/A   Partly Cloudy
11:22 PM 35.6 °F - 33.8 °F 93% 30.31 in 3.0 mi Calm Calm - N/A   Partly Cloudy
11:26 PM 33.8 °F - 33.8 °F 100% 30.31 in 1.8 mi Calm Calm - N/A   Partly Cloudy
11:42 PM 33.8 °F 30.8 °F 33.8 °F 100% 30.31 in 3.0 mi NW 3.5 mph - N/A   Clear
11:44 PM 35.6 °F 32.8 °F 33.8 °F 93% 30.31 in 1.8 mi NW 3.5 mph - N/A   Partly Cloudy
11:53 PM 35.1 °F 32.2 °F 34.0 °F 96% 30.30 in 1.5 mi NW 3.5 mph - N/A   Clear